Probability
0 0 0 0 0 0 0 0 0 0 0 0 0 0 0 0 0 0 0 0 0 0 0 0 0 0 0 0 0 0 0 0 0 0 0 0 0 0
0 0 0 0 0 0 0 0 0 0 0 0 0 0 0 0 0 0 0 0 0 0 0 0 0 0 0 0 0 0 0 0 0 0 0 0 0 0
0 0 0 0 0 0 0 0 0 0 0 0 0 0 0 0 0 0 0 0 0 0 0 0 0 0 0 0 0 0 0 0 0 0 0 0 0 0
0 0 0 0 0 0 0 0 0 0 0 0 0 0 0 0 0 0 0 0 0 0 0 0 0 0 0 0 0 0 0 0 0 0 0 0 0 0
0 0 0 0 0 0 0 0 0 0 0 0 0 0 0 0 0 0 0 0 0 0 0 0 0 0 0 0 0 0 0 0 0 0 0 0 0 0
0 0 0 0 0 0 0 0 0 0 0 0 0 0 0 0 0 0 0 0 0 0 0 0 0 0 0 0 0 0 0 0 0 0 0 0 0 0
0 0 0 0 0 0 0 0 0 0 0 0 0 0 0 0 0 0 0 0 0 0 0 0 0 0 0 0 0 0 0 0 0 0 0 0 0 0
0 0 0 0 0 0 0 0 0 0 0 0 0 0 0 0 0 0 0 0 0 0 0 0 0 0 0 0 0 0 0 0 0 0 0 0 0 0
0 0 0 0 0 0 0 0 0 0 0 0 0 0 0 0 0 0 0 0 0 0 0 0 0 0 0 0 0 0 0 0 0 0 0 0 0 0
0 0 0 0 0 0 0 0 0 0 0 0 0 0 0 0 0 0 0 0 0 0 0 0 0 0 0 0 0 0 0 0 0 0 0 0 0 0
0 0 0 0 0 0 0 0 0 0 0 0 0 0 0 0 0 0 0 0 0 0 0 0 0 0 0 0 0 0 0 0 0 0 0 0 0 0
0 0 0 0 0 0 0 0 0 0 0 0 0 0 0 0 0 0 0 0 0 0 0 0 0 0 0 0 0 0 0 0 0 0 0 0 0 0
0 0 0 0 0 0 0 0 0 0 0 0 0 0 0 0 0 0 0 0 0 0 0 0 0 0 0 0 0 0 0 0 0 0 0 0 0 0
0 0 0 0 0 0 0 0 0 0 0 0 0 0 0 0 0 0 0 0 0 0 0 0 0 0 0 0 0 0 0 0 0 0 0 0 0 0
0 0 0 0 0 0 0 0 0 0 0 0 0 0 0 0 0 0 0 0 0 0 0 0 0 0 0 0 0 0 0 0 0 0 0 0 0 0
0 0 0 0 0 0 0 0 0 0 0 0 0 0 0 0 0 0 0 0 0 0 0 0 0 0 0 0 0 0 0 0 0 0 0 0 0 0
0 0 0 0 0 0 0 0 0 0 0 0 0 0 0 0 0 0 0 0 0 0 0 0 0 0 0 0 0 0 0 0 0 0 0 0 0 0
0 0 0 0 0 0 0 0 0 0 0 0 0 0 0 0 0 0 0 0 0 0 0 0 0 0 0 0 0 0 0 0 0 0 0 0 0 0
0 0 0 0 0 0 0 0 0 0 0 0 0 0 0 0 0 0 0 0 0 0 0 0 0 0 0 0 0 0 0 0 0 0 0 0 0 0
0 0 0 0 0 0 0 0 0 0 0 0 0 0 0 0 0 0 0 0 0 0 0 0 0 0 0 0 0 0 0 0 0 0 0 0 0 0
0 0 0 0 0 0 0 0 0 0 0 0 0 0 0 0 0 0 0 0 0 0 0 0 0 0 0 0 0 0 0 0 0 0 0 0 0 0
0 0 0 0 0 0 0 0 0 0 0 0 0 0 0 0 0 0 0 0 0 0 0 0 0 0 0 0 0 0 0 0 0 0 0 0 0 0
0 0 0 0 0 0 0 0 0 0 0 0 0 0 0 0 0 0 0 0 0 0 0 0 0 0 0 0 0 0 0 0 0 0 0 0 0 0
Wind_Speed
5 6 6 5 5 6 6 6 7 9 10 9 7 6 7 9 12 13 14 17 20 22 22 22 22 22 23 23 24 24 24 24 25 25 26 26 26 27
5 6 7 6 6 6 6 7 8 10 11 8 10 11 12 10 15 15 15 21 21 22 21 21 22 23 23 24 24 24 24 24 25 25 26 26 26 26
6 7 8 8 7 7 7 8 8 9 13 12 11 12 14 14 13 13 13 14 13 20 21 22 23 23 24 24 24 24 24 24 24 24 25 25 25 25
8 8 9 7 10 9 8 9 9 10 12 15 12 11 14 14 15 15 13 12 13 18 22 23 24 24 24 24 23 23 23 23 23 23 23 24 24 24
9 10 10 10 11 9 10 10 9 10 11 12 13 11 11 12 14 14 15 13 13 14 19 21 22 23 24 24 24 23 23 22 22 21 22 22 23 23
10 10 11 11 12 12 10 11 11 11 11 12 12 12 11 13 12 12 12 11 12 12 15 17 20 23 23 23 22 22 21 21 21 21 21 21 21 21
11 11 12 13 15 14 11 11 11 10 10 11 12 12 11 11 11 11 12 12 13 12 12 12 12 11 12 16 18 19 20 20 21 21 22 21 21 21
12 12 12 13 15 18 20 20 18 15 13 12 12 13 15 14 12 11 12 13 13 9 11 12 11 12 12 12 16 20 21 21 21 21 21 21 21 21
13 12 10 11 14 13 15 18 19 21 21 17 16 16 16 15 14 15 14 14 14 11 11 13 12 13 12 12 19 21 21 21 21 20 20 20 20 20
13 13 14 14 12 12 12 13 15 15 16 14 13 15 16 15 15 15 15 15 14 11 11 12 11 11 11 11 16 18 19 19 19 19 19 18 18 17
13 13 14 14 16 18 15 15 16 14 16 20 22 22 24 24 20 12 11 12 12 10 9 10 11 11 11 11 10 13 13 14 15 15 14 14 14 14
11 11 14 16 18 19 15 14 15 14 14 14 15 17 16 16 19 13 10 11 11 10 8 8 9 8 8 7 6 7 8 10 11 11 11 11 11 8
10 10 10 16 19 20 19 15 17 17 14 13 11 11 10 9 9 9 8 8 10 11 8 7 8 8 8 8 8 8 8 7 7 6 7 8 9 8
11 10 11 18 20 22 18 18 22 19 11 10 10 10 9 9 8 8 8 8 9 12 11 10 8 8 9 10 8 7 6 6 6 6 5 5 6 7
11 17 20 23 22 17 18 20 17 11 9 10 10 10 9 8 8 8 8 8 10 10 10 11 10 9 9 9 9 8 7 5 5 5 4 4 4 4
12 15 20 22 18 17 16 13 9 9 9 9 10 9 8 8 8 8 8 7 8 8 7 8 9 9 9 9 8 8 6 5 4 4 4 4 4 4
13 11 11 11 10 9 9 9 8 8 9 8 9 9 8 8 8 7 7 7 8 8 7 5 5 7 9 8 7 7 6 5 4 4 4 4 4 3
17 12 12 11 10 9 9 9 8 8 8 8 8 8 8 8 8 7 7 7 8 8 7 6 5 5 5 6 8 7 5 4 3 3 3 4 4 3
14 12 11 10 10 10 9 9 9 9 8 8 8 8 8 8 8 8 7 7 8 7 7 6 5 5 6 5 2 4 4 3 3 3 3 3 3 3
10 11 11 10 10 9 9 9 9 8 8 8 8 8 8 8 8 8 7 8 8 7 7 6 5 5 5 5 3 2 4 4 4 3 2 2 3 3
10 10 10 10 9 9 9 9 9 8 8 8 8 8 8 8 8 8 7 10 9 7 7 6 4 4 4 3 4 4 2 3 4 3 3 3 3 2
11 10 10 10 9 9 9 8 8 8 9 8 8 8 8 8 8 9 8 7 7 7 7 5 3 3 4 5 5 4 3 2 2 4 5 5 3 2
10 10 10 10 9 9 8 9 10 9 9 8 8 8 8 7 7 7 8 7 7 7 6 5 4 3 4 4 4 4 4 3 2 2 2 4 6 6
Wind_Direction
254 257 259 261 260 261 263 264 274 289 294 297 295 291 292 293 297 296 295 296 297 295 294 292 292 291 290 289 288 287 286 284 282 280 278 277 275 274
254 258 260 262 262 259 257 260 259 268 279 288 291 291 294 292 293 294 293 295 291 290 290 291 290 290 289 288 287 286 285 283 281 280 278 277 276 275
254 257 262 265 266 264 261 261 262 264 273 283 286 292 293 292 293 292 292 292 290 289 290 290 290 290 289 288 287 286 286 285 284 283 282 280 279 278
260 261 264 265 264 265 264 264 266 268 275 285 290 293 293 294 292 292 292 289 288 290 291 291 290 290 288 287 287 286 286 285 285 285 284 283 281 280
262 263 265 267 268 268 268 269 271 273 275 281 287 291 291 289 291 289 289 288 289 289 290 288 288 289 289 288 287 285 286 286 285 285 284 282 280 280
261 261 263 264 267 272 274 274 275 277 276 278 282 286 286 288 288 289 290 288 290 292 289 288 287 287 286 285 285 286 287 286 285 285 284 281 280 279
262 261 261 261 266 269 270 272 272 271 274 276 280 285 286 288 287 290 290 293 289 289 288 288 290 288 290 288 286 284 285 285 284 283 281 279 278 277
264 266 266 264 264 266 269 271 273 275 276 276 279 280 284 287 288 287 290 290 290 289 288 289 291 288 287 283 283 284 284 283 281 279 279 279 277 277
269 271 270 268 270 270 273 275 274 273 272 273 276 277 283 286 288 287 283 283 283 289 289 284 284 283 284 282 284 283 283 283 282 281 281 280 278 277
269 270 272 274 272 274 276 274 273 272 271 271 270 275 278 281 280 280 281 283 281 276 272 279 284 285 287 286 287 286 286 286 285 283 281 280 280 280
269 269 270 273 276 278 278 277 277 276 274 273 273 276 279 282 284 285 284 284 284 283 280 278 286 292 291 289 288 290 291 293 293 291 287 286 286 285
273 271 268 270 276 280 279 279 280 282 283 283 281 280 280 283 284 280 279 280 285 288 286 283 287 297 292 287 295 300 297 293 291 291 294 296 295 288
276 275 274 276 278 280 281 279 278 285 287 287 285 281 278 275 275 272 265 267 275 277 286 292 285 284 281 289 293 291 290 293 293 288 287 290 292 288
277 277 277 281 282 283 282 279 284 289 286 285 283 281 280 281 280 279 272 266 263 270 278 280 276 279 283 285 286 289 290 290 288 289 291 294 288 284
276 280 283 285 287 285 282 283 285 282 280 280 280 281 283 284 284 280 274 266 262 261 264 264 264 268 269 275 281 286 290 287 284 287 292 292 292 291
279 281 283 283 278 276 278 279 272 269 273 275 278 282 284 283 278 277 279 281 280 277 259 258 262 264 267 271 274 278 279 280 286 290 295 294 290 285
286 283 279 278 273 270 271 271 269 268 270 269 274 279 281 281 278 277 275 278 278 283 285 274 263 263 265 269 272 270 270 269 272 279 283 284 282 283
288 280 280 279 279 280 281 278 272 268 269 270 272 276 279 279 280 278 274 273 277 280 282 285 283 278 262 245 238 263 266 270 273 270 272 280 286 290
282 277 276 277 279 279 278 276 274 271 272 270 269 272 275 276 276 277 277 275 276 278 279 278 275 275 281 283 228 230 271 281 276 270 267 278 292 311
273 274 275 276 278 279 277 275 275 274 269 265 266 268 270 272 273 274 275 276 280 282 280 272 263 265 275 291 298 280 263 273 276 277 281 284 289 293
277 276 277 277 276 276 276 275 274 273 271 270 268 267 267 268 268 271 274 276 276 277 278 278 279 275 271 263 259 258 258 254 272 279 286 282 284 283
276 276 277 276 275 275 275 273 272 270 269 267 266 263 264 264 266 268 270 272 273 276 280 280 273 255 241 247 260 272 277 273 257 256 264 272 289 308
276 276 276 274 273 273 270 270 271 269 267 266 264 263 263 263 264 266 267 267 269 272 274 272 264 250 245 248 258 264 267 265 260 250 247 243 251 263